| time (UTC) | temp C | wind direction | speed KPH | gust KPH | rain 1hr cm | rain 24hr cm | rain mn cm | humidity % | barometer mb |
| 20260506204517 | -3 | 0 | 3.2 | 9.7 | 0.00 | 0.08 | 0.03 | 82 | 1016.8 |
| 20260506203517 | -2 | 315 | 3.2 | 11.3 | 0.00 | 0.08 | 0.03 | 83 | 1017.5 |
| 20260506202517 | -2 | 338 | 4.8 | 14.5 | 0.00 | 0.10 | 0.03 | 86 | 1017.4 |
| 20260506201517 | -3 | 0 | 1.6 | 4.8 | 0.00 | 0.10 | 0.03 | 86 | 1017.4 |
| 20260506200517 | -3 | 0 | 1.6 | 6.4 | 0.00 | 0.10 | 0.03 | 86 | 1016.6 |
| 20260506195516 | -3 | 338 | 3.2 | 8.0 | 0.00 | 0.13 | 0.03 | 85 | 1016.5 |
| 20260506194517 | -2 | 0.0 | 4.8 | 0.00 | 0.13 | 0.03 | 83 | 1017.1 | |
| 20260506193537 | -3 | 270 | 1.6 | 4.8 | 0.00 | 0.13 | 0.03 | 85 | 1017.2 |
| 20260506192537 | -3 | 0.0 | 4.8 | 0.03 | 0.13 | 0.03 | 85 | 1017.2 | |
| 20260506191517 | -2 | 0.0 | 3.2 | 0.03 | 0.13 | 0.03 | 79 | 1017.1 | |
| 20260506190516 | -2 | 0.0 | 3.2 | 0.03 | 0.15 | 0.03 | 79 | 1017.1 | |
| 20260506185517 | -3 | 0.0 | 1.6 | 0.03 | 0.15 | 0.03 | 84 | 1017.1 | |
| 20260506184516 | -3 | 0.0 | 3.2 | 0.03 | 0.15 | 0.03 | 81 | 1016.3 | |
| 20260506183516 | -2 | 0.0 | 0.0 | 0.03 | 0.15 | 0.03 | 78 | 1017.1 | |
| 20260506182516 | -2 | 0.0 | 4.8 | 0.00 | 0.15 | 0.00 | 80 | 1017.1 | |
| 20260506181516 | -2 | 0.0 | 3.2 | 0.00 | 0.15 | 0.00 | 75 | 1017.1 | |
| 20260506180537 | -2 | 0.0 | 3.2 | 0.00 | 0.18 | 0.00 | 75 | 1018.0 | |
| 20260506175516 | -2 | 0.0 | 1.6 | 0.00 | 0.18 | 0.00 | 76 | 1018.0 | |
| 20260506174516 | -2 | 0.0 | 3.2 | 0.00 | 0.18 | 0.00 | 80 | 1017.3 | |
| 20260506173516 | -3 | 0.0 | 4.8 | 0.00 | 0.18 | 0.00 | 79 | 1016.5 | |
| 20260506172516 | -4 | 0.0 | 4.8 | 0.00 | 0.18 | 0.00 | 83 | 1016.5 | |
| 20260506171516 | -5 | 135 | 1.6 | 6.4 | 0.00 | 0.20 | 0.00 | 81 | 1015.6 |
| 20260506170616 | -4 | 135 | 1.6 | 6.4 | 0.00 | 0.23 | 0.00 | 84 | 1016.1 |
| 20260506165536 | -5 | 135 | 1.6 | 9.7 | 0.00 | 0.23 | 0.00 | 86 | 1015.3 |
| 20260506164516 | -5 | 135 | 1.6 | 4.8 | 0.00 | 0.23 | 0.00 | 85 | 1015.2 |
| 20260506163516 | -6 | 135 | 3.2 | 11.3 | 0.00 | 0.23 | 0.00 | 84 | 1014.2 |
| 20260506162516 | -5 | 113 | 3.2 | 12.9 | 0.00 | 0.23 | 0.00 | 85 | 1014.8 |
| 20260506161516 | -5 | 0.0 | 4.8 | 0.00 | 0.23 | 0.00 | 87 | 1014.6 | |
| 20260506160536 | -6 | 0.0 | 4.8 | 0.00 | 0.23 | 0.00 | 86 | 1014.5 | |
| 20260506155516 | -5 | 0.0 | 3.2 | 0.00 | 0.23 | 0.00 | 87 | 1015.1 | |
| 20260506154516 | -6 | 135 | 1.6 | 4.8 | 0.00 | 0.23 | 0.00 | 87 | 1014.5 |
| 20260506153516 | -6 | 135 | 1.6 | 6.4 | 0.00 | 0.23 | 0.00 | 87 | 1014.1 |
| 20260506152556 | -6 | 0.0 | 3.2 | 0.00 | 0.23 | 0.00 | 88 | 1014.4 | |
| 20260506151516 | -6 | 0.0 | 3.2 | 0.00 | 0.23 | 0.00 | 88 | 1014.3 | |
| 20260506150516 | -6 | 0.0 | 3.2 | 0.00 | 0.23 | 0.00 | 88 | 1014.3 | |
| 20260506145516 | -6 | 0.0 | 3.2 | 0.00 | 0.23 | 0.00 | 90 | 1014.3 | |
| 20260506144516 | -6 | 0.0 | 4.8 | 0.00 | 0.23 | 0.00 | 90 | 1014.1 | |
| 20260506143536 | -6 | 0.0 | 3.2 | 0.00 | 0.23 | 0.00 | 90 | 1014.1 | |
| 20260506142516 | -6 | 0.0 | 1.6 | 0.00 | 0.23 | 0.00 | 91 | 1014.0 | |
| 20260506141536 | -7 | 0.0 | 3.2 | 0.00 | 0.23 | 0.00 | 91 | 1014.0 | |
| 20260506140515 | -7 | 180 | 1.6 | 4.8 | 0.00 | 0.23 | 0.00 | 91 | 1013.7 |
| 20260506135536 | -7 | 180 | 1.6 | 4.8 | 0.00 | 0.23 | 0.00 | 92 | 1013.6 |
| 20260506134536 | -7 | 203 | 1.6 | 4.8 | 0.00 | 0.23 | 0.00 | 92 | 1013.4 |
| 20260506133515 | -7 | 203 | 1.6 | 4.8 | 0.00 | 0.23 | 0.00 | 92 | 1013.4 |
| 20260506132515 | -7 | 203 | 1.6 | 4.8 | 0.00 | 0.23 | 0.00 | 92 | 1013.3 |
| 20260506131535 | -7 | 203 | 1.6 | 6.4 | 0.00 | 0.23 | 0.00 | 92 | 1012.9 |
| 20260506130515 | -7 | 225 | 1.6 | 9.7 | 0.00 | 0.23 | 0.00 | 92 | 1012.7 |
| 20260506125515 | -7 | 180 | 1.6 | 6.4 | 0.00 | 0.23 | 0.00 | 92 | 1013.2 |
| 20260506124515 | -7 | 180 | 1.6 | 4.8 | 0.00 | 0.23 | 0.00 | 92 | 1013.1 |
| 20260506123516 | -7 | 0.0 | 4.8 | 0.00 | 0.23 | 0.00 | 92 | 1012.9 | |
| 20260506122515 | -7 | 0.0 | 3.2 | 0.00 | 0.23 | 0.00 | 92 | 1012.6 | |
| 20260506121516 | -7 | 180 | 1.6 | 3.2 | 0.00 | 0.23 | 0.00 | 92 | 1012.4 |
| 20260506120516 | -7 | 0.0 | 3.2 | 0.00 | 0.23 | 0.00 | 92 | 1012.5 | |
| 20260506115536 | -7 | 0.0 | 3.2 | 0.00 | 0.23 | 0.00 | 92 | 1012.4 | |
| 20260506114515 | -7 | 0.0 | 3.2 | 0.00 | 0.23 | 0.00 | 93 | 1012.0 | |
| 20260506113515 | -7 | 0.0 | 3.2 | 0.00 | 0.23 | 0.00 | 93 | 1011.9 | |
| 20260506112515 | -7 | 0.0 | 1.6 | 0.00 | 0.23 | 0.00 | 92 | 1011.8 | |
| 20260506111515 | -7 | 0.0 | 3.2 | 0.00 | 0.23 | 0.00 | 93 | 1011.6 | |
| 20260506110515 | -7 | 0.0 | 3.2 | 0.00 | 0.23 | 0.00 | 93 | 1011.5 | |
| 20260506105517 | -7 | 0.0 | 0.0 | 0.00 | 0.23 | 0.00 | 93 | 1011.3 | |
| 20260506104517 | -7 | 0.0 | 0.0 | 0.00 | 0.23 | 0.00 | 93 | 1011.4 | |
| 20260506103517 | -7 | 0.0 | 0.0 | 0.00 | 0.23 | 0.00 | 92 | 1011.4 | |
| 20260506102517 | -7 | 0.0 | 3.2 | 0.00 | 0.25 | 0.00 | 92 | 1011.1 | |
| 20260506101517 | -7 | 0.0 | 3.2 | 0.00 | 0.25 | 0.00 | 92 | 1011.3 | |
| 20260506100517 | -7 | 158 | 1.6 | 6.4 | 0.00 | 0.25 | 0.00 | 92 | 1011.4 |
| 20260506095517 | -7 | 158 | 1.6 | 8.0 | 0.00 | 0.25 | 0.00 | 92 | 1011.9 |
| 20260506094517 | -7 | 158 | 1.6 | 8.0 | 0.00 | 0.25 | 0.00 | 92 | 1012.1 |
| 20260506093517 | -7 | 158 | 1.6 | 6.4 | 0.00 | 0.25 | 0.00 | 92 | 1012.0 |
| 20260506092517 | -7 | 158 | 1.6 | 8.0 | 0.00 | 0.25 | 0.00 | 92 | 1011.7 |
| 20260506091517 | -7 | 135 | 4.8 | 11.3 | 0.00 | 0.25 | 0.00 | 92 | 1011.7 |
| 20260506090537 | -7 | 135 | 3.2 | 8.0 | 0.00 | 0.25 | 0.00 | 92 | 1011.7 |
| 20260506085517 | -7 | 135 | 4.8 | 12.9 | 0.00 | 0.25 | 0.00 | 92 | 1012.2 |
| 20260506084517 | -7 | 135 | 1.6 | 6.4 | 0.00 | 0.25 | 0.00 | 92 | 1012.1 |
| 20260506083517 | -7 | 135 | 1.6 | 6.4 | 0.00 | 0.25 | 0.00 | 92 | 1012.2 |
| 20260506082517 | -6 | 135 | 1.6 | 4.8 | 0.00 | 0.25 | 0.00 | 93 | 1012.2 |
| 20260506081537 | -6 | 180 | 1.6 | 6.4 | 0.00 | 0.25 | 0.00 | 93 | 1011.8 |
| 20260506080516 | -6 | 158 | 1.6 | 4.8 | 0.00 | 0.25 | 0.00 | 93 | 1012.4 |
| 20260506073516 | -6 | 135 | 1.6 | 4.8 | 0.00 | 0.25 | 0.00 | 93 | 1011.7 |
| 20260506072517 | -6 | 135 | 1.6 | 6.4 | 0.00 | 0.25 | 0.00 | 93 | 1012.1 |
| 20260506071517 | -6 | 135 | 1.6 | 6.4 | 0.00 | 0.25 | 0.00 | 93 | 1012.0 |
| 20260506070516 | -6 | 135 | 1.6 | 4.8 | 0.00 | 0.25 | 0.00 | 93 | 1012.1 |
| 20260506062516 | -6 | 135 | 1.6 | 3.2 | 0.00 | 0.25 | 0.00 | 92 | 1011.8 |
| 20260506061516 | -6 | 135 | 3.2 | 6.4 | 0.00 | 0.25 | 0.00 | 92 | 1011.6 |
| 20260506060516 | -6 | 158 | 1.6 | 6.4 | 0.00 | 0.25 | 0.00 | 92 | 1011.6 |
| 20260506050517 | -6 | 158 | 1.6 | 4.8 | 0.00 | 0.25 | 0.25 | 92 | 1010.8 |
| 20260506044517 | -6 | 0.0 | 3.2 | 0.00 | 0.25 | 0.25 | 92 | 1010.8 | |
| 20260506043517 | -6 | 158 | 1.6 | 8.0 | 0.00 | 0.25 | 0.25 | 92 | 1010.4 |
| 20260506042517 | -6 | 158 | 1.6 | 8.0 | 0.00 | 0.25 | 0.25 | 92 | 1009.7 |
| 20260506041517 | -6 | 135 | 1.6 | 4.8 | 0.00 | 0.25 | 0.25 | 92 | 1010.6 |
| 20260506040517 | -6 | 158 | 1.6 | 4.8 | 0.00 | 0.25 | 0.25 | 91 | 1010.4 |
| 20260506035517 | -6 | 0.0 | 6.4 | 0.00 | 0.25 | 0.25 | 92 | 1010.2 | |
| 20260506034517 | -6 | 158 | 1.6 | 6.4 | 0.00 | 0.25 | 0.25 | 92 | 1009.9 |
| 20260506033517 | -5 | 0.0 | 3.2 | 0.00 | 0.25 | 0.25 | 92 | 1009.8 | |
| 20260506032517 | -5 | 158 | 1.6 | 8.0 | 0.00 | 0.25 | 0.25 | 92 | 1009.5 |
| 20260506031516 | -5 | 0.0 | 0.0 | 0.00 | 0.25 | 0.25 | 92 | 1010.3 | |
| 20260506030536 | -5 | 0.0 | 3.2 | 0.00 | 0.25 | 0.25 | 92 | 1010.0 | |
| 20260506025537 | -5 | 0.0 | 1.6 | 0.00 | 0.25 | 0.25 | 92 | 1008.6 | |
| 20260506024516 | -5 | 0.0 | 0.0 | 0.00 | 0.25 | 0.25 | 92 | 1008.4 | |
| 20260506023517 | -5 | 0.0 | 3.2 | 0.00 | 0.25 | 0.25 | 91 | 1008.4 | |
| 20260506022516 | -5 | 0.0 | 0.0 | 0.00 | 0.28 | 0.25 | 91 | 1008.8 | |
| 20260506021516 | -5 | 0.0 | 0.0 | 0.00 | 0.33 | 0.25 | 91 | 1008.7 | |
| 20260506020516 | -5 | 0.0 | 1.6 | 0.00 | 0.33 | 0.25 | 90 | 1008.3 | |
| 20260506015516 | -5 | 0.0 | 3.2 | 0.00 | 0.33 | 0.25 | 90 | 1008.1 | |
| 20260506014536 | -5 | 0.0 | 3.2 | 0.00 | 0.33 | 0.25 | 90 | 1007.9 | |
| 20260506013516 | -4 | 0.0 | 3.2 | 0.00 | 0.33 | 0.25 | 90 | 1008.5 | |
| 20260506012516 | -4 | 0.0 | 3.2 | 0.00 | 0.33 | 0.25 | 90 | 1008.5 | |
| 20260506011516 | -4 | 0.0 | 3.2 | 0.00 | 0.33 | 0.25 | 90 | 1008.4 | |
| 20260506010516 | -4 | 0.0 | 3.2 | 0.00 | 0.33 | 0.25 | 90 | 1008.3 | |
| 20260506005516 | -3 | 158 | 1.6 | 3.2 | 0.00 | 0.33 | 0.25 | 90 | 1008.2 |
| 20260506004536 | -3 | 158 | 1.6 | 4.8 | 0.00 | 0.33 | 0.25 | 90 | 1007.9 |
| 20260506003536 | -3 | 180 | 3.2 | 9.7 | 0.00 | 0.33 | 0.25 | 89 | 1007.9 |
| 20260506002536 | -3 | 0.0 | 4.8 | 0.00 | 0.33 | 0.25 | 91 | 1008.7 | |
| 20260506001516 | -3 | 0.0 | 3.2 | 0.00 | 0.33 | 0.25 | 91 | 1008.4 | |
| 20260506000516 | -3 | 0.0 | 3.2 | 0.00 | 0.33 | 0.25 | 91 | 1008.4 | |
| 20260505235516 | -3 | 203 | 1.6 | 6.4 | 0.00 | 0.33 | 0.25 | 91 | 1008.1 |
| 20260505234516 | -3 | 203 | 1.6 | 3.2 | 0.00 | 0.33 | 0.25 | 91 | 1008.2 |
| 20260505233516 | -3 | 203 | 1.6 | 8.0 | 0.00 | 0.33 | 0.25 | 91 | 1008.0 |
| 20260505232536 | -3 | 203 | 1.6 | 4.8 | 0.00 | 0.36 | 0.25 | 92 | 1008.5 |
| 20260505231536 | -3 | 0.0 | 3.2 | 0.00 | 0.36 | 0.25 | 92 | 1008.2 | |
| 20260505230516 | -3 | 203 | 1.6 | 6.4 | 0.00 | 0.36 | 0.25 | 92 | 1008.0 |
| 20260505225516 | -3 | 158 | 1.6 | 8.0 | 0.00 | 0.36 | 0.25 | 92 | 1008.6 |
| 20260505224516 | -3 | 180 | 1.6 | 9.7 | 0.00 | 0.36 | 0.25 | 92 | 1008.7 |
| 20260505223516 | -3 | 0.0 | 4.8 | 0.03 | 0.36 | 0.25 | 92 | 1008.6 | |
| 20260505222516 | -2 | 0.0 | 0.0 | 0.03 | 0.36 | 0.25 | 91 | 1008.7 | |
| 20260505221536 | -2 | 203 | 1.6 | 4.8 | 0.03 | 0.36 | 0.25 | 91 | 1009.1 |
| 20260505220536 | -2 | 158 | 1.6 | 6.4 | 0.05 | 0.36 | 0.25 | 91 | 1008.4 |
| 20260505215536 | -2 | 158 | 3.2 | 8.0 | 0.05 | 0.36 | 0.25 | 90 | 1009.0 |
| 20260505214516 | -2 | 203 | 1.6 | 8.0 | 0.05 | 0.36 | 0.25 | 90 | 1008.6 |
| 20260505213616 | -1 | 180 | 3.2 | 8.0 | 0.03 | 0.33 | 0.23 | 91 | 1009.0 |
| 20260505212516 | -2 | 158 | 4.8 | 9.7 | 0.05 | 0.33 | 0.23 | 91 | 1008.7 |
| 20260505211515 | -1 | 248 | 1.6 | 9.7 | 0.05 | 0.33 | 0.23 | 92 | 1008.7 |
| 20260505210516 | -2 | 0.0 | 1.6 | 0.03 | 0.30 | 0.20 | 91 | 1008.4 | |
| 20260505205515 | -2 | 293 | 3.2 | 12.9 | 0.05 | 0.30 | 0.20 | 89 | 1008.4 |